Time,TemperatureF,DewpointF,PressureIn,WindDirection,WindDirectionDegrees,WindSpeedMPH,WindSpeedGustMPH,Humidity,HourlyPrecipIn,Conditions,Clouds,dailyrainin,SolarRadiationWatts/m^2,SoftwareType,DateUTC
2013-12-19 00:00:00,67.7,61.3,29.03,East,86,1.0,1.0,80,0.00,,,0.00,0,Wunderground v.1.15,2013-12-18 13:00:00,
2013-12-19 00:10:00,67.6,61.2,29.03,NNE,15,1.0,1.0,80,0.00,,,0.00,0,Wunderground v.1.15,2013-12-18 13:10:00,
2013-12-19 00:15:00,67.5,61.1,29.03,NNE,28,1.0,1.0,80,0.00,,,0.00,0,Wunderground v.1.15,2013-12-18 13:15:00,
2013-12-19 00:25:00,67.3,60.9,29.03,NE,50,1.0,1.0,80,0.00,,,0.00,0,Wunderground v.1.15,2013-12-18 13:25:00,
2013-12-19 00:30:00,67.2,60.8,29.02,NNE,32,1.0,1.0,80,0.00,,,0.00,0,Wunderground v.1.15,2013-12-18 13:30:00,
2013-12-19 00:35:00,67.0,60.6,29.02,ENE,66,0.0,1.0,80,0.00,,,0.00,0,Wunderground v.1.15,2013-12-18 13:35:00,
2013-12-19 00:40:00,66.9,60.5,29.02,NE,36,1.0,3.0,80,0.00,,,0.00,0,Wunderground v.1.15,2013-12-18 13:40:00,
2013-12-19 00:50:00,66.8,60.4,29.02,NNE,28,1.0,1.0,80,0.00,,,0.00,0,Wunderground v.1.15,2013-12-18 13:50:00,
2013-12-19 00:55:00,66.7,60.3,29.01,NNE,31,1.0,2.0,80,0.00,,,0.00,0,Wunderground v.1.15,2013-12-18 13:55:00,
2013-12-19 01:00:00,66.6,60.2,29.01,East,93,1.0,1.0,80,0.00,,,0.00,0,Wunderground v.1.15,2013-12-18 14:00:00,
2013-12-19 01:10:00,66.4,60.0,29.02,NE,50,0.0,0.0,80,0.00,,,0.00,0,Wunderground v.1.15,2013-12-18 14:10:00,
2013-12-19 01:15:00,66.3,60.3,29.01,NNE,28,0.0,0.0,81,0.00,,,0.00,0,Wunderground v.1.15,2013-12-18 14:15:00,
2013-12-19 08:05:00,69.5,62.0,29.02,ENE,57,2.0,4.0,77,0.00,,,0.00,88,Wunderground v.1.15,2013-12-18 21:05:00,
2013-12-19 08:10:00,69.9,62.0,29.02,NNE,19,3.0,3.0,76,0.00,,,0.00,102,Wunderground v.1.15,2013-12-18 21:10:00,
2013-12-19 08:15:00,70.2,62.3,29.02,NNE,28,2.0,8.0,76,0.00,,,0.00,176,Wunderground v.1.15,2013-12-18 21:15:00,
2013-12-19 08:25:00,70.8,62.1,29.01,NNE,20,2.0,5.0,74,0.00,,,0.00,141,Wunderground v.1.15,2013-12-18 21:25:00,
2013-12-19 08:30:00,71.0,62.3,29.02,North,5,3.0,3.0,74,0.00,,,0.00,76,Wunderground v.1.15,2013-12-18 21:30:00,
2013-12-19 08:40:00,71.0,62.3,29.02,NE,48,3.0,3.0,74,0.00,,,0.00,243,Wunderground v.1.15,2013-12-18 21:40:00,
2013-12-19 08:45:00,71.4,62.3,29.02,ENE,70,2.0,3.0,73,0.00,,,0.00,580,Wunderground v.1.15,2013-12-18 21:45:00,
2013-12-19 08:50:00,72.1,62.6,29.02,East,101,2.0,3.0,72,0.00,,,0.00,599,Wunderground v.1.15,2013-12-18 21:50:00,
2013-12-19 09:00:00,73.2,62.4,29.02,NNE,16,3.0,3.0,69,0.00,,,0.00,631,Wunderground v.1.15,2013-12-18 22:00:00,
2013-12-19 09:05:00,73.8,63.4,29.02,NNW,346,2.0,3.0,70,0.00,,,0.00,643,Wunderground v.1.15,2013-12-18 22:05:00,
2013-12-19 09:10:00,74.3,63.1,29.02,ENE,69,2.0,5.0,68,0.00,,,0.00,663,Wunderground v.1.15,2013-12-18 22:10:00,
2013-12-19 09:15:00,74.3,63.1,29.02,NE,36,3.0,5.0,68,0.00,,,0.00,677,Wunderground v.1.15,2013-12-18 22:15:00,
2013-12-19 09:25:00,75.0,63.3,29.02,NE,46,3.0,3.0,67,0.00,,,0.00,707,Wunderground v.1.15,2013-12-18 22:25:00,
2013-12-19 09:30:00,75.4,63.2,29.02,NE,47,4.0,4.0,66,0.00,,,0.00,721,Wunderground v.1.15,2013-12-18 22:30:00,
2013-12-19 09:40:00,76.5,63.4,29.01,SW,226,1.0,1.0,64,0.00,,,0.00,752,Wunderground v.1.15,2013-12-18 22:40:00,
2013-12-19 09:45:00,77.1,62.6,29.02,NE,42,1.0,2.0,61,0.00,,,0.00,768,Wunderground v.1.15,2013-12-18 22:45:00,
2013-12-19 09:55:00,78.1,62.6,29.02,North,360,2.0,2.0,59,0.00,,,0.00,777,Wunderground v.1.15,2013-12-18 22:55:00,
2013-12-19 10:00:00,78.7,62.7,29.01,NNW,330,1.0,1.0,58,0.00,,,0.00,809,Wunderground v.1.15,2013-12-18 23:00:00,
2013-12-19 10:05:00,78.9,62.4,29.01,ENE,57,2.0,2.0,57,0.00,,,0.00,819,Wunderground v.1.15,2013-12-18 23:05:00,
2013-12-19 10:10:00,78.7,62.7,29.02,East,85,2.0,4.0,58,0.00,,,0.00,830,Wunderground v.1.15,2013-12-18 23:10:00,
2013-12-19 10:20:00,79.2,62.7,29.01,NNE,29,2.0,5.0,57,0.00,,,0.00,860,Wunderground v.1.15,2013-12-18 23:20:00,
2013-12-19 10:25:00,79.5,62.4,29.01,ENE,66,3.0,5.0,56,0.00,,,0.00,868,Wunderground v.1.15,2013-12-18 23:25:00,
2013-12-19 10:30:00,78.6,62.1,29.01,North,360,4.0,4.0,57,0.00,,,0.00,877,Wunderground v.1.15,2013-12-18 23:30:00,
2013-12-19 10:40:00,79.4,63.8,29.01,NE,38,2.0,2.0,59,0.00,,,0.00,898,Wunderground v.1.15,2013-12-18 23:40:00,
2013-12-19 10:45:00,79.6,63.0,29.01,NNE,28,2.0,2.0,57,0.00,,,0.00,909,Wunderground v.1.15,2013-12-18 23:45:00,
2013-12-19 10:55:00,80.4,64.3,29.00,SSE,155,1.0,2.0,58,0.00,,,0.00,928,Wunderground v.1.15,2013-12-18 23:55:00,
2013-12-19 11:00:00,80.3,64.2,29.01,East,84,3.0,7.0,58,0.00,,,0.00,939,Wunderground v.1.15,2013-12-19 00:00:00,
2013-12-19 11:05:00,79.7,64.1,29.00,NNE,17,4.0,7.0,59,0.00,,,0.00,933,Wunderground v.1.15,2013-12-19 00:05:00,
2013-12-19 11:10:00,78.9,63.8,29.01,ESE,121,3.0,3.0,60,0.00,,,0.00,958,Wunderground v.1.15,2013-12-19 00:10:00,
2013-12-19 11:20:00,78.6,64.0,29.00,SSW,199,4.0,4.0,61,0.00,,,0.00,969,Wunderground v.1.15,2013-12-19 00:20:00,
2013-12-19 11:25:00,78.9,64.3,29.00,NE,39,3.0,4.0,61,0.00,,,0.00,976,Wunderground v.1.15,2013-12-19 00:25:00,
2013-12-19 11:30:00,78.9,63.8,29.00,ENE,76,3.0,4.0,60,0.00,,,0.00,981,Wunderground v.1.15,2013-12-19 00:30:00,
2013-12-19 11:40:00,78.8,63.7,29.00,NNW,348,3.0,3.0,60,0.00,,,0.00,991,Wunderground v.1.15,2013-12-19 00:40:00,
2013-12-19 11:50:00,79.1,64.0,29.00,NE,53,3.0,3.0,60,0.00,,,0.00,1000,Wunderground v.1.15,2013-12-19 00:50:00,
2013-12-19 11:55:00,79.3,64.2,29.00,SE,125,3.0,3.0,60,0.00,,,0.00,1007,Wunderground v.1.15,2013-12-19 00:55:00,
2013-12-19 12:00:00,79.2,64.1,29.00,East,90,4.0,7.0,60,0.00,,,0.00,1011,Wunderground v.1.15,2013-12-19 01:00:00,
2013-12-19 12:05:00,78.7,64.1,28.99,NE,52,5.0,7.0,61,0.00,,,0.00,1014,Wunderground v.1.15,2013-12-19 01:05:00,
2013-12-19 12:15:00,79.1,64.0,28.99,ENE,72,4.0,7.0,60,0.00,,,0.00,1020,Wunderground v.1.15,2013-12-19 01:15:00,
2013-12-19 12:25:00,79.3,64.2,28.98,East,80,4.0,7.0,60,0.00,,,0.00,1025,Wunderground v.1.15,2013-12-19 01:25:00,
2013-12-19 12:35:00,79.0,63.9,28.98,North,355,4.0,4.0,60,0.00,,,0.00,1023,Wunderground v.1.15,2013-12-19 01:35:00,
2013-12-19 12:45:00,78.8,63.7,28.98,East,85,4.0,5.0,60,0.00,,,0.00,1027,Wunderground v.1.15,2013-12-19 01:45:00,
2013-12-19 12:50:00,78.9,64.3,28.98,East,94,4.0,4.0,61,0.00,,,0.00,1025,Wunderground v.1.15,2013-12-19 01:50:00,
2013-12-19 12:55:00,78.8,64.2,28.98,ENE,64,3.0,4.0,61,0.00,,,0.00,1023,Wunderground v.1.15,2013-12-19 01:55:00,
2013-12-19 13:00:00,79.3,64.7,28.98,ENE,58,3.0,3.0,61,0.00,,,0.00,1025,Wunderground v.1.15,2013-12-19 02:00:00,
2013-12-19 13:10:00,79.9,64.3,28.97,NE,38,4.0,4.0,59,0.00,,,0.00,1028,Wunderground v.1.15,2013-12-19 02:10:00,
2013-12-19 13:15:00,80.2,64.6,28.97,East,89,4.0,8.0,59,0.00,,,0.00,1025,Wunderground v.1.15,2013-12-19 02:15:00,
2013-12-19 13:20:00,79.2,64.1,28.97,NNE,15,4.0,5.0,60,0.00,,,0.00,1020,Wunderground v.1.15,2013-12-19 02:20:00,
2013-12-19 13:25:00,80.2,65.1,28.97,NE,38,5.0,5.0,60,0.00,,,0.00,1014,Wunderground v.1.15,2013-12-19 02:25:00,
2013-12-19 13:35:00,80.7,64.5,28.96,ENE,71,4.0,8.0,58,0.00,,,0.00,1011,Wunderground v.1.15,2013-12-19 02:35:00,
2013-12-19 13:45:00,79.8,64.2,28.96,ENE,65,5.0,8.0,59,0.00,,,0.00,1002,Wunderground v.1.15,2013-12-19 02:45:00,
2013-12-19 13:50:00,79.7,64.6,28.96,NE,38,5.0,5.0,60,0.00,,,0.00,993,Wunderground v.1.15,2013-12-19 02:50:00,
2013-12-19 13:55:00,79.5,63.9,28.95,NNE,30,5.0,5.0,59,0.00,,,0.00,990,Wunderground v.1.15,2013-12-19 02:55:00,
2013-12-19 14:05:00,80.4,64.3,28.95,East,98,5.0,5.0,58,0.00,,,0.00,977,Wunderground v.1.15,2013-12-19 03:05:00,
2013-12-19 14:10:00,79.5,64.9,28.94,ENE,63,5.0,5.0,61,0.00,,,0.00,976,Wunderground v.1.15,2013-12-19 03:10:00,
2013-12-19 14:15:00,80.4,65.2,28.94,ENE,61,4.0,5.0,60,0.00,,,0.00,965,Wunderground v.1.15,2013-12-19 03:15:00,
2013-12-19 14:20:00,79.4,65.2,28.94,East,82,4.0,4.0,62,0.00,,,0.00,958,Wunderground v.1.15,2013-12-19 03:20:00,
2013-12-19 14:30:00,80.3,65.1,28.93,ENE,66,5.0,5.0,60,0.00,,,0.00,942,Wunderground v.1.15,2013-12-19 03:30:00,
2013-12-19 14:40:00,79.3,65.6,28.93,ENE,75,5.0,5.0,63,0.00,,,0.00,921,Wunderground v.1.15,2013-12-19 03:40:00,
2013-12-19 14:45:00,79.5,65.3,28.93,ENE,59,4.0,5.0,62,0.00,,,0.00,914,Wunderground v.1.15,2013-12-19 03:45:00,
2013-12-19 14:50:00,80.0,65.8,28.93,East,85,5.0,5.0,62,0.00,,,0.00,904,Wunderground v.1.15,2013-12-19 03:50:00,
2013-12-19 14:55:00,80.5,65.8,28.93,East,90,5.0,5.0,61,0.00,,,0.00,895,Wunderground v.1.15,2013-12-19 03:55:00,
2013-12-19 15:05:00,79.8,65.6,28.92,SSE,153,5.0,8.0,62,0.00,,,0.00,870,Wunderground v.1.15,2013-12-19 04:05:00,
2013-12-19 15:10:00,80.2,66.0,28.92,NNE,25,4.0,4.0,62,0.00,,,0.00,861,Wunderground v.1.15,2013-12-19 04:10:00,
2013-12-19 15:15:00,80.8,66.1,28.92,SSW,196,4.0,4.0,61,0.00,,,0.00,853,Wunderground v.1.15,2013-12-19 04:15:00,
2013-12-19 15:25:00,81.0,66.8,28.92,South,189,4.0,4.0,62,0.00,,,0.00,826,Wunderground v.1.15,2013-12-19 04:25:00,
2013-12-19 15:30:00,80.6,65.4,28.92,ENE,62,4.0,4.0,60,0.00,,,0.00,816,Wunderground v.1.15,2013-12-19 04:30:00,
2013-12-19 15:40:00,79.7,65.5,28.91,ENE,76,5.0,8.0,62,0.00,,,0.00,789,Wunderground v.1.15,2013-12-19 04:40:00,
2013-12-19 15:45:00,79.5,65.3,28.91,SSE,153,5.0,8.0,62,0.00,,,0.00,775,Wunderground v.1.15,2013-12-19 04:45:00,
2013-12-19 15:55:00,79.9,65.7,28.91,ESE,121,4.0,4.0,62,0.00,,,0.00,749,Wunderground v.1.15,2013-12-19 04:55:00,
2013-12-19 16:00:00,80.6,65.4,28.91,North,9,4.0,4.0,60,0.00,,,0.00,735,Wunderground v.1.15,2013-12-19 05:00:00,
2013-12-19 16:05:00,79.6,65.9,28.90,NE,55,4.0,4.0,63,0.00,,,0.00,721,Wunderground v.1.15,2013-12-19 05:05:00,
2013-12-19 16:10:00,79.3,65.1,28.91,NE,42,5.0,5.0,62,0.00,,,0.00,708,Wunderground v.1.15,2013-12-19 05:10:00,
2013-12-19 16:15:00,79.5,65.3,28.91,North,5,5.0,5.0,62,0.00,,,0.00,698,Wunderground v.1.15,2013-12-19 05:15:00,
2013-12-19 16:25:00,79.6,65.4,28.90,SE,140,5.0,8.0,62,0.00,,,0.00,666,Wunderground v.1.15,2013-12-19 05:25:00,
2013-12-19 16:30:00,79.7,65.1,28.90,ENE,73,4.0,5.0,61,0.00,,,0.00,649,Wunderground v.1.15,2013-12-19 05:30:00,
2013-12-19 16:40:00,79.6,65.0,28.90,NE,55,4.0,4.0,61,0.00,,,0.00,612,Wunderground v.1.15,2013-12-19 05:40:00,
2013-12-19 16:45:00,79.1,65.0,28.89,South,177,5.0,5.0,62,0.00,,,0.00,598,Wunderground v.1.15,2013-12-19 05:45:00,
2013-12-19 16:50:00,78.6,64.9,28.89,ENE,58,6.0,6.0,63,0.00,,,0.00,587,Wunderground v.1.15,2013-12-19 05:50:00,
2013-12-19 16:55:00,78.8,64.7,28.89,NE,43,6.0,10.0,62,0.00,,,0.00,570,Wunderground v.1.15,2013-12-19 05:55:00,
2013-12-19 17:00:00,78.8,65.1,28.89,WSW,247,5.0,5.0,63,0.00,,,0.00,548,Wunderground v.1.15,2013-12-19 06:00:00,
2013-12-19 17:10:00,78.6,64.5,28.89,NE,46,5.0,12.0,62,0.00,,,0.00,522,Wunderground v.1.15,2013-12-19 06:10:00,
2013-12-19 17:15:00,78.2,65.0,28.88,NE,34,6.0,12.0,64,0.00,,,0.00,504,Wunderground v.1.15,2013-12-19 06:15:00,
2013-12-19 17:20:00,78.1,64.5,28.88,SE,146,5.0,5.0,63,0.00,,,0.00,487,Wunderground v.1.15,2013-12-19 06:20:00,
2013-12-19 17:30:00,77.7,64.5,28.88,NE,37,6.0,6.0,64,0.00,,,0.00,455,Wunderground v.1.15,2013-12-19 06:30:00,
2013-12-19 17:35:00,78.4,65.2,28.88,NNE,28,5.0,9.0,64,0.00,,,0.00,436,Wunderground v.1.15,2013-12-19 06:35:00,
2013-12-19 17:45:00,77.7,65.0,28.88,East,81,6.0,12.0,65,0.00,,,0.00,403,Wunderground v.1.15,2013-12-19 06:45:00,
2013-12-19 17:50:00,77.3,64.6,28.88,ENE,65,6.0,8.0,65,0.00,,,0.00,381,Wunderground v.1.15,2013-12-19 06:50:00,
2013-12-19 17:55:00,77.3,65.5,28.88,NE,49,6.0,8.0,67,0.00,,,0.00,352,Wunderground v.1.15,2013-12-19 06:55:00,
2013-12-19 18:05:00,77.5,65.2,28.87,ESE,106,5.0,5.0,66,0.00,,,0.00,295,Wunderground v.1.15,2013-12-19 07:05:00,
2013-12-19 18:10:00,77.5,65.2,28.88,ENE,78,4.0,4.0,66,0.00,,,0.00,278,Wunderground v.1.15,2013-12-19 07:10:00,
2013-12-19 18:15:00,77.2,65.0,28.88,ESE,104,4.0,9.0,66,0.00,,,0.00,281,Wunderground v.1.15,2013-12-19 07:15:00,
2013-12-19 18:20:00,77.2,65.0,28.87,East,80,5.0,5.0,66,0.00,,,0.00,265,Wunderground v.1.15,2013-12-19 07:20:00,
2013-12-19 18:30:00,77.1,64.4,28.87,NE,48,5.0,6.0,65,0.00,,,0.00,244,Wunderground v.1.15,2013-12-19 07:30:00,
2013-12-19 18:40:00,76.4,64.2,28.87,NE,35,6.0,10.0,66,0.00,,,0.00,213,Wunderground v.1.15,2013-12-19 07:40:00,
2013-12-19 18:45:00,76.5,64.7,28.87,East,82,6.0,12.0,67,0.00,,,0.00,199,Wunderground v.1.15,2013-12-19 07:45:00,
2013-12-19 18:50:00,76.7,64.5,28.87,ENE,78,4.0,15.0,66,0.00,,,0.00,181,Wunderground v.1.15,2013-12-19 07:50:00,
2013-12-19 18:55:00,76.7,64.5,28.87,East,90,4.0,15.0,66,0.00,,,0.00,155,Wunderground v.1.15,2013-12-19 07:55:00,
2013-12-19 19:05:00,76.1,64.3,28.87,ENE,72,5.0,5.0,67,0.00,,,0.00,121,Wunderground v.1.15,2013-12-19 08:05:00,
2013-12-19 19:10:00,76.0,64.2,28.88,ENE,69,5.0,5.0,67,0.00,,,0.00,111,Wunderground v.1.15,2013-12-19 08:10:00,
2013-12-19 19:15:00,75.8,64.1,28.88,NNE,23,4.0,6.0,67,0.00,,,0.00,90,Wunderground v.1.15,2013-12-19 08:15:00,
2013-12-19 19:25:00,75.5,63.8,28.88,NNE,30,4.0,6.0,67,0.00,,,0.00,62,Wunderground v.1.15,2013-12-19 08:25:00,
2013-12-19 19:30:00,75.3,64.0,28.88,ENE,59,3.0,3.0,68,0.00,,,0.00,28,Wunderground v.1.15,2013-12-19 08:30:00,
2013-12-19 19:40:00,74.8,63.9,28.88,ENE,70,3.0,3.0,69,0.00,,,0.00,21,Wunderground v.1.15,2013-12-19 08:40:00,
2013-12-19 19:45:00,74.6,63.8,28.88,North,349,2.0,3.0,69,0.00,,,0.00,14,Wunderground v.1.15,2013-12-19 08:45:00,
2013-12-19 19:55:00,74.2,63.4,28.88,ESE,113,4.0,4.0,69,0.00,,,0.00,5,Wunderground v.1.15,2013-12-19 08:55:00,
2013-12-19 20:00:00,74.1,63.3,28.88,NNE,25,3.0,3.0,69,0.00,,,0.00,0,Wunderground v.1.15,2013-12-19 09:00:00,
2013-12-19 20:05:00,74.0,62.8,28.88,North,9,2.0,3.0,68,0.00,,,0.00,0,Wunderground v.1.15,2013-12-19 09:05:00,
2013-12-19 20:10:00,73.9,62.7,28.88,NNE,28,2.0,2.0,68,0.00,,,0.00,0,Wunderground v.1.15,2013-12-19 09:10:00,
2013-12-19 20:20:00,73.6,62.0,28.88,North,5,3.0,3.0,67,0.00,,,0.00,0,Wunderground v.1.15,2013-12-19 09:20:00,
2013-12-19 20:25:00,73.5,61.9,28.88,NE,47,2.0,4.0,67,0.00,,,0.00,0,Wunderground v.1.15,2013-12-19 09:25:00,
2013-12-19 20:30:00,73.3,61.7,28.88,NE,46,2.0,7.0,67,0.00,,,0.00,0,Wunderground v.1.15,2013-12-19 09:30:00,
2013-12-19 20:40:00,73.1,61.5,28.88,NE,38,3.0,4.0,67,0.00,,,0.00,0,Wunderground v.1.15,2013-12-19 09:40:00,
2013-12-19 20:50:00,72.8,61.2,28.88,ENE,57,2.0,2.0,67,0.00,,,0.00,0,Wunderground v.1.15,2013-12-19 09:50:00,
2013-12-19 20:55:00,72.6,61.0,28.88,NW,325,2.0,3.0,67,0.00,,,0.00,0,Wunderground v.1.15,2013-12-19 09:55:00,
2013-12-19 21:00:00,72.4,60.8,28.88,NE,47,2.0,2.0,67,0.00,,,0.00,0,Wunderground v.1.15,2013-12-19 10:00:00,
2013-12-19 21:05:00,72.2,61.0,28.88,NE,42,2.0,2.0,68,0.00,,,0.00,0,Wunderground v.1.15,2013-12-19 10:05:00,
2013-12-19 21:15:00,71.9,60.8,28.89,NNE,30,1.0,6.0,68,0.00,,,0.00,0,Wunderground v.1.15,2013-12-19 10:15:00,
2013-12-19 21:20:00,71.8,60.7,28.89,NNE,23,1.0,1.0,68,0.00,,,0.00,0,Wunderground v.1.15,2013-12-19 10:20:00,
2013-12-19 21:25:00,71.7,60.6,28.89,NNW,339,1.0,1.0,68,0.00,,,0.00,0,Wunderground v.1.15,2013-12-19 10:25:00,
2013-12-19 21:30:00,71.5,60.8,28.89,NE,38,0.0,3.0,69,0.00,,,0.00,0,Wunderground v.1.15,2013-12-19 10:30:00,
2013-12-19 21:40:00,71.3,60.6,28.89,NE,52,1.0,1.0,69,0.00,,,0.00,0,Wunderground v.1.15,2013-12-19 10:40:00,
2013-12-19 21:45:00,71.1,60.4,28.89,ENE,71,1.0,2.0,69,0.00,,,0.00,0,Wunderground v.1.15,2013-12-19 10:45:00,
2013-12-19 21:50:00,71.0,60.7,28.89,ENE,72,2.0,2.0,70,0.00,,,0.00,0,Wunderground v.1.15,2013-12-19 10:50:00,
2013-12-19 21:55:00,70.9,60.6,28.89,NE,46,2.0,2.0,70,0.00,,,0.00,0,Wunderground v.1.15,2013-12-19 10:55:00,
2013-12-19 22:00:00,70.7,60.8,28.89,NE,50,2.0,2.0,71,0.00,,,0.00,0,Wunderground v.1.15,2013-12-19 11:00:00,
2013-12-19 22:10:00,70.6,61.1,28.89,NNE,19,2.0,2.0,72,0.00,,,0.00,0,Wunderground v.1.15,2013-12-19 11:10:00,
2013-12-19 22:15:00,70.5,61.0,28.89,NNE,22,2.0,3.0,72,0.00,,,0.00,0,Wunderground v.1.15,2013-12-19 11:15:00,
2013-12-19 22:20:00,70.3,61.2,28.89,NNE,14,2.0,4.0,73,0.00,,,0.00,0,Wunderground v.1.15,2013-12-19 11:20:00,
2013-12-19 22:25:00,70.2,61.1,28.88,North,10,2.0,4.0,73,0.00,,,0.00,0,Wunderground v.1.15,2013-12-19 11:25:00,
2013-12-19 22:35:00,70.0,61.3,28.89,NNE,32,1.0,2.0,74,0.00,,,0.00,0,Wunderground v.1.15,2013-12-19 11:35:00,
2013-12-19 22:45:00,69.8,61.5,28.89,ENE,59,1.0,2.0,75,0.00,,,0.00,0,Wunderground v.1.15,2013-12-19 11:45:00,
2013-12-19 22:50:00,69.7,61.4,28.89,NE,37,1.0,1.0,75,0.00,,,0.00,0,Wunderground v.1.15,2013-12-19 11:50:00,
2013-12-19 22:55:00,69.6,61.3,28.89,NE,43,1.0,1.0,75,0.00,,,0.00,0,Wunderground v.1.15,2013-12-19 11:55:00,
2013-12-19 23:00:00,69.5,61.6,28.89,NE,43,0.0,0.0,76,0.00,,,0.00,0,Wunderground v.1.15,2013-12-19 12:00:00,
2013-12-19 23:10:00,69.4,61.5,28.89,NNE,30,0.0,0.0,76,0.00,,,0.00,0,Wunderground v.1.15,2013-12-19 12:10:00,
2013-12-19 23:15:00,69.3,61.8,28.88,ENE,65,1.0,1.0,77,0.00,,,0.00,0,Wunderground v.1.15,2013-12-19 12:15:00,
2013-12-19 23:25:00,69.1,61.6,28.88,NNE,23,0.0,1.0,77,0.00,,,0.00,0,Wunderground v.1.15,2013-12-19 12:25:00,
2013-12-19 23:30:00,69.0,61.5,28.89,NE,38,0.0,2.0,77,0.00,,,0.00,0,Wunderground v.1.15,2013-12-19 12:30:00,
2013-12-19 23:40:00,68.7,61.6,28.88,ESE,107,0.0,0.0,78,0.00,,,0.00,0,Wunderground v.1.15,2013-12-19 12:40:00,
2013-12-19 23:45:00,68.7,61.9,28.88,NE,34,0.0,0.0,79,0.00,,,0.00,0,Wunderground v.1.15,2013-12-19 12:45:00,
2013-12-19 23:55:00,68.5,61.7,28.88,NE,34,0.0,0.0,79,0.00,,,0.00,0,Wunderground v.1.15,2013-12-19 12:55:00,